Year,Month,Day,Hour,Minute,Value (Times are PST for temperature in C)
2008,07,15,00,00,10.40
2008,07,15,00,01,10.40
2008,07,15,00,02,10.40
2008,07,15,00,03,10.40
2008,07,15,00,04,10.40
2008,07,15,00,05,10.40
2008,07,15,00,06,10.40
2008,07,15,00,07,10.40
2008,07,15,00,08,10.40
2008,07,15,00,09,10.40
2008,07,15,00,10,10.30
2008,07,15,00,11,10.30
2008,07,15,00,12,10.30
2008,07,15,00,13,10.40
2008,07,15,00,14,10.40
2008,07,15,00,15,10.40
2008,07,15,00,16,10.40
2008,07,15,00,17,10.40
2008,07,15,00,18,10.40
2008,07,15,00,19,10.40
2008,07,15,00,20,10.40
2008,07,15,00,21,10.40
2008,07,15,00,22,10.40
2008,07,15,00,23,10.40
2008,07,15,00,24,10.40
2008,07,15,00,25,10.40
2008,07,15,00,26,10.30
2008,07,15,00,27,10.30
2008,07,15,00,28,10.30
2008,07,15,00,29,10.30
2008,07,15,00,30,10.30
2008,07,15,00,31,10.30
2008,07,15,00,32,10.30
2008,07,15,00,33,10.30
2008,07,15,00,34,10.30
2008,07,15,00,35,10.30
2008,07,15,00,36,10.30
2008,07,15,00,37,10.30
2008,07,15,00,38,10.30
2008,07,15,00,39,10.20
2008,07,15,00,40,10.20
2008,07,15,00,41,10.20
2008,07,15,00,42,10.20
2008,07,15,00,43,10.20
2008,07,15,00,44,10.20
2008,07,15,00,45,10.20
2008,07,15,00,46,10.20
2008,07,15,00,47,10.20
2008,07,15,00,48,10.20
2008,07,15,00,49,10.20
2008,07,15,00,50,10.20
2008,07,15,00,51,10.20
2008,07,15,00,52,10.20
2008,07,15,00,53,10.20
2008,07,15,00,54,10.20
2008,07,15,00,55,10.20
2008,07,15,00,56,10.20
2008,07,15,00,57,10.20
2008,07,15,00,58,10.20
2008,07,15,00,59,10.20
2008,07,15,01,00,10.20
2008,07,15,01,01,10.20
2008,07,15,01,02,10.10
2008,07,15,01,03,10.10
2008,07,15,01,04,10.10
2008,07,15,01,05,10.10
2008,07,15,01,06,10.10
2008,07,15,01,07,10.10
2008,07,15,01,08,10.10
2008,07,15,01,09,10.10
2008,07,15,01,10,10.10
2008,07,15,01,11,10.10
2008,07,15,01,12,10.10
2008,07,15,01,13,10.10
2008,07,15,01,14,10.10
2008,07,15,01,15,10.10
2008,07,15,01,16,10.10
2008,07,15,01,17,10.10
2008,07,15,01,18,10.10
2008,07,15,01,19,10.10
2008,07,15,01,20,10.10
2008,07,15,01,21,10.10
2008,07,15,01,22,10.10
2008,07,15,01,23,10.10
2008,07,15,01,24,10.10
2008,07,15,01,25,10.10
2008,07,15,01,26,10.10
2008,07,15,01,27,10.10
2008,07,15,01,28,10.10
2008,07,15,01,29,10.10
2008,07,15,01,30,10.10
2008,07,15,01,31,10.10
2008,07,15,01,32,10.10
2008,07,15,01,33,10.10
2008,07,15,01,34,10.10
2008,07,15,01,35,10.10
2008,07,15,01,36,10.10
2008,07,15,01,37,10.10
2008,07,15,01,38,10.10
2008,07,15,01,39,10.10
2008,07,15,01,40,10.10
2008,07,15,01,41,10.10
2008,07,15,01,42,10.10
2008,07,15,01,43,10.00
2008,07,15,01,44,9.90
2008,07,15,01,45,9.90
2008,07,15,01,46,9.90
2008,07,15,01,47,9.90
2008,07,15,01,48,9.90
2008,07,15,01,49,9.90
2008,07,15,01,50,9.90
2008,07,15,01,51,9.90
2008,07,15,01,52,9.90
2008,07,15,01,53,9.90
2008,07,15,01,54,9.90
2008,07,15,01,55,9.90
2008,07,15,01,56,9.90
2008,07,15,01,57,9.90
2008,07,15,01,58,9.90
2008,07,15,01,59,9.90
2008,07,15,02,00,9.90
2008,07,15,02,01,9.90
2008,07,15,02,02,9.90
2008,07,15,02,03,9.90
2008,07,15,02,04,9.90
2008,07,15,02,05,9.90
2008,07,15,02,06,9.90
2008,07,15,02,07,9.90
2008,07,15,02,08,9.90
2008,07,15,02,09,9.90
2008,07,15,02,10,9.90
2008,07,15,02,11,9.90
2008,07,15,02,12,9.90
2008,07,15,02,13,9.90
2008,07,15,02,14,9.90
2008,07,15,02,15,9.90
2008,07,15,02,16,9.90
2008,07,15,02,17,9.90
2008,07,15,02,18,9.90
2008,07,15,02,19,9.90
2008,07,15,02,20,9.90
2008,07,15,02,21,9.90
2008,07,15,02,22,9.90
2008,07,15,02,23,9.90
2008,07,15,02,24,9.90
2008,07,15,02,25,9.80
2008,07,15,02,26,9.80
2008,07,15,02,27,9.80
2008,07,15,02,28,9.80
2008,07,15,02,29,9.80
2008,07,15,02,30,9.80
2008,07,15,02,31,9.80
2008,07,15,02,32,9.70
2008,07,15,02,33,9.70
2008,07,15,02,34,9.70
2008,07,15,02,35,9.70
2008,07,15,02,36,9.70
2008,07,15,02,37,9.70
2008,07,15,02,38,9.70
2008,07,15,02,39,9.70
2008,07,15,02,40,9.70
2008,07,15,02,41,9.70
2008,07,15,02,42,9.70
2008,07,15,02,43,9.70
2008,07,15,02,44,9.70
2008,07,15,02,45,9.70
2008,07,15,02,46,9.60
2008,07,15,02,47,9.60
2008,07,15,02,48,9.60
2008,07,15,02,49,9.50
2008,07,15,02,50,9.50
2008,07,15,02,51,9.50
2008,07,15,02,52,9.50
2008,07,15,02,53,9.50
2008,07,15,02,54,9.40
2008,07,15,02,55,9.40
2008,07,15,02,56,9.40
2008,07,15,02,57,9.40
2008,07,15,02,58,9.30
2008,07,15,02,59,9.30
2008,07,15,03,00,9.30
2008,07,15,03,01,9.30
2008,07,15,03,02,9.20
2008,07,15,03,03,9.20
2008,07,15,03,04,9.20
2008,07,15,03,05,9.20
2008,07,15,03,06,9.20
2008,07,15,03,07,9.20
2008,07,15,03,08,9.30
2008,07,15,03,09,9.30
2008,07,15,03,10,9.30
2008,07,15,03,11,9.20
2008,07,15,03,12,9.20
2008,07,15,03,13,9.20
2008,07,15,03,14,9.20
2008,07,15,03,15,9.20
2008,07,15,03,16,9.30
2008,07,15,03,17,9.30
2008,07,15,03,18,9.30
2008,07,15,03,19,9.30
2008,07,15,03,20,9.40
2008,07,15,03,21,9.40
2008,07,15,03,22,9.40
2008,07,15,03,23,9.50
2008,07,15,03,24,9.50
2008,07,15,03,25,9.50
2008,07,15,03,26,9.50
2008,07,15,03,27,9.50
2008,07,15,03,28,9.50
2008,07,15,03,29,9.50
2008,07,15,03,30,9.50
2008,07,15,03,31,9.50
2008,07,15,03,32,9.50
2008,07,15,03,33,9.40
2008,07,15,03,34,9.40
2008,07,15,03,35,9.40
2008,07,15,03,36,9.40
2008,07,15,03,37,9.40
2008,07,15,03,38,9.40
2008,07,15,03,39,9.40
2008,07,15,03,40,9.40
2008,07,15,03,41,9.40
2008,07,15,03,42,9.40
2008,07,15,03,43,9.30
2008,07,15,03,44,9.30
2008,07,15,03,45,9.30
2008,07,15,03,46,9.30
2008,07,15,03,47,9.30
2008,07,15,03,48,9.30
2008,07,15,03,49,9.30
2008,07,15,03,50,9.30
2008,07,15,03,51,9.30
2008,07,15,03,52,9.30
2008,07,15,03,53,9.30
2008,07,15,03,54,9.30
2008,07,15,03,55,9.20
2008,07,15,03,56,9.20
2008,07,15,03,57,9.20
2008,07,15,03,58,9.20
2008,07,15,03,59,9.20
2008,07,15,04,00,9.20
2008,07,15,04,01,9.20
2008,07,15,04,02,9.20
2008,07,15,04,03,9.20
2008,07,15,04,04,9.20
2008,07,15,04,05,9.20
2008,07,15,04,06,9.10
2008,07,15,04,07,9.10
2008,07,15,04,08,9.10
2008,07,15,04,09,9.10
2008,07,15,04,10,9.10
2008,07,15,04,11,9.00
2008,07,15,04,12,9.00
2008,07,15,04,13,9.00
2008,07,15,04,14,9.00
2008,07,15,04,15,9.00
2008,07,15,04,16,9.00
2008,07,15,04,17,9.00
2008,07,15,04,18,8.90
2008,07,15,04,19,8.90
2008,07,15,04,20,8.90
2008,07,15,04,21,8.90
2008,07,15,04,22,8.90
2008,07,15,04,23,8.90
2008,07,15,04,24,8.90
2008,07,15,04,25,8.90
2008,07,15,04,26,8.80
2008,07,15,04,27,8.80
2008,07,15,04,28,8.70
2008,07,15,04,29,8.70
2008,07,15,04,30,8.70
2008,07,15,04,31,8.60
2008,07,15,04,32,8.60
2008,07,15,04,33,8.60
2008,07,15,04,34,8.60
2008,07,15,04,35,8.50
2008,07,15,04,36,8.50
2008,07,15,04,37,8.40
2008,07,15,04,38,8.40
2008,07,15,04,39,8.30
2008,07,15,04,40,8.30
2008,07,15,04,41,8.20
2008,07,15,04,42,8.20
2008,07,15,04,43,8.20
2008,07,15,04,44,8.10
2008,07,15,04,45,8.10
2008,07,15,04,46,8.10
2008,07,15,04,47,8.00
2008,07,15,04,48,8.00
2008,07,15,04,49,8.00
2008,07,15,04,50,8.00
2008,07,15,04,51,8.00
2008,07,15,04,52,8.00
2008,07,15,04,53,8.00
2008,07,15,04,54,7.90
2008,07,15,04,55,7.90
2008,07,15,04,56,7.90
2008,07,15,04,57,7.90
2008,07,15,04,58,7.80
2008,07,15,04,59,7.80
2008,07,15,05,00,7.80
2008,07,15,05,01,7.80
2008,07,15,05,02,7.80
2008,07,15,05,03,7.80
2008,07,15,05,04,7.80
2008,07,15,05,05,7.80
2008,07,15,05,06,7.80
2008,07,15,05,07,7.80
2008,07,15,05,08,7.80
2008,07,15,05,09,7.80
2008,07,15,05,10,7.80
2008,07,15,05,11,7.80
2008,07,15,05,12,7.80
2008,07,15,05,13,7.80
2008,07,15,05,14,7.90
2008,07,15,05,15,7.90
2008,07,15,05,16,8.00
2008,07,15,05,17,8.00
2008,07,15,05,18,8.00
2008,07,15,05,19,8.10
2008,07,15,05,20,8.20
2008,07,15,05,21,8.20
2008,07,15,05,22,8.20
2008,07,15,05,23,8.20
2008,07,15,05,24,8.30
2008,07,15,05,25,8.30
2008,07,15,05,26,8.30
2008,07,15,05,27,8.30
2008,07,15,05,28,8.30
2008,07,15,05,29,8.20
2008,07,15,05,30,8.20
2008,07,15,05,31,8.20
2008,07,15,05,32,8.20
2008,07,15,05,33,8.20
2008,07,15,05,34,8.20
2008,07,15,05,35,8.10
2008,07,15,05,36,8.10
2008,07,15,05,37,8.00
2008,07,15,05,38,8.00
2008,07,15,05,39,8.00
2008,07,15,05,40,7.90
2008,07,15,05,41,7.90
2008,07,15,05,42,7.90
2008,07,15,05,43,7.80
2008,07,15,05,44,7.80
2008,07,15,05,45,7.80
2008,07,15,05,46,7.80
2008,07,15,05,47,7.80
2008,07,15,05,48,7.80
2008,07,15,05,49,7.70
2008,07,15,05,50,7.70
2008,07,15,05,51,7.70
2008,07,15,05,52,7.70
2008,07,15,05,53,7.70
2008,07,15,05,54,7.70
2008,07,15,05,55,7.70
2008,07,15,05,56,7.70
2008,07,15,05,57,7.70
2008,07,15,05,58,7.70
2008,07,15,05,59,7.70
2008,07,15,06,00,7.70
2008,07,15,06,01,7.70
2008,07,15,06,02,7.60
2008,07,15,06,03,7.60
2008,07,15,06,04,7.60
2008,07,15,06,05,7.60
2008,07,15,06,06,7.60
2008,07,15,06,07,7.60
2008,07,15,06,08,7.60
2008,07,15,06,09,7.60
2008,07,15,06,10,7.60
2008,07,15,06,11,7.60
2008,07,15,06,12,7.60
2008,07,15,06,13,7.70
2008,07,15,06,14,7.70
2008,07,15,06,15,7.80
2008,07,15,06,16,7.80
2008,07,15,06,17,7.90
2008,07,15,06,18,7.90
2008,07,15,06,19,7.90
2008,07,15,06,20,8.00
2008,07,15,06,21,8.00
2008,07,15,06,22,8.00
2008,07,15,06,23,8.00
2008,07,15,06,24,8.00
2008,07,15,06,25,8.10
2008,07,15,06,26,8.10
2008,07,15,06,27,8.10
2008,07,15,06,28,8.10
2008,07,15,06,29,8.10
2008,07,15,06,30,8.10
2008,07,15,06,31,8.10
2008,07,15,06,32,8.10
2008,07,15,06,33,8.20
2008,07,15,06,34,8.20
2008,07,15,06,35,8.20
2008,07,15,06,36,8.20
2008,07,15,06,37,8.20
2008,07,15,06,38,8.30
2008,07,15,06,39,8.30
2008,07,15,06,40,8.40
2008,07,15,06,41,8.40
2008,07,15,06,42,8.50
2008,07,15,06,43,8.50
2008,07,15,06,44,8.60
2008,07,15,06,45,8.60
2008,07,15,06,46,8.60
2008,07,15,06,47,8.70
2008,07,15,06,48,8.70
2008,07,15,06,49,8.70
2008,07,15,06,50,8.70
2008,07,15,06,51,8.70
2008,07,15,06,52,8.70
2008,07,15,06,53,8.80
2008,07,15,06,54,8.80
2008,07,15,06,55,8.90
2008,07,15,06,56,9.00
2008,07,15,06,57,9.00
2008,07,15,06,58,9.00
2008,07,15,06,59,9.10
2008,07,15,07,00,9.10
2008,07,15,07,01,9.10
2008,07,15,07,02,9.10
2008,07,15,07,03,9.10
2008,07,15,07,04,9.10
2008,07,15,07,05,9.10
2008,07,15,07,06,9.20
2008,07,15,07,07,9.20
2008,07,15,07,08,9.30
2008,07,15,07,09,9.40
2008,07,15,07,10,9.50
2008,07,15,07,11,9.70
2008,07,15,07,12,9.70
2008,07,15,07,13,9.80
2008,07,15,07,14,9.90
2008,07,15,07,15,9.90
2008,07,15,07,16,10.00
2008,07,15,07,17,10.10
2008,07,15,07,18,10.10
2008,07,15,07,19,10.20
2008,07,15,07,20,10.20
2008,07,15,07,21,10.30
2008,07,15,07,22,10.30
2008,07,15,07,23,10.40
2008,07,15,07,24,10.40
2008,07,15,07,25,10.50
2008,07,15,07,26,10.60
2008,07,15,07,27,10.60
2008,07,15,07,28,10.60
2008,07,15,07,29,10.60
2008,07,15,07,30,10.60
2008,07,15,07,31,10.60
2008,07,15,07,32,10.60
2008,07,15,07,33,10.60
2008,07,15,07,34,10.60
2008,07,15,07,35,10.60
2008,07,15,07,36,10.70
2008,07,15,07,37,10.80
2008,07,15,07,38,10.80
2008,07,15,07,39,10.80
2008,07,15,07,40,10.90
2008,07,15,07,41,10.90
2008,07,15,07,42,10.90
2008,07,15,07,43,10.90
2008,07,15,07,44,10.90
2008,07,15,07,45,10.90
2008,07,15,07,46,10.90
2008,07,15,07,47,10.80
2008,07,15,07,48,10.70
2008,07,15,07,49,10.70
2008,07,15,07,50,10.60
2008,07,15,07,51,10.60
2008,07,15,07,52,10.60
2008,07,15,07,53,10.60
2008,07,15,07,54,10.60
2008,07,15,07,55,10.70
2008,07,15,07,56,10.70
2008,07,15,07,57,10.80
2008,07,15,07,58,10.80
2008,07,15,07,59,10.80
2008,07,15,08,00,10.80
2008,07,15,08,01,10.90
2008,07,15,08,02,10.90
2008,07,15,08,03,10.90
2008,07,15,08,04,10.90
2008,07,15,08,05,10.90
2008,07,15,08,06,10.90
2008,07,15,08,07,10.90
2008,07,15,08,08,10.90
2008,07,15,08,09,10.80
2008,07,15,08,10,10.80
2008,07,15,08,11,10.80
2008,07,15,08,12,10.80
2008,07,15,08,13,10.80
2008,07,15,08,14,10.80
2008,07,15,08,15,10.80
2008,07,15,08,16,10.90
2008,07,15,08,17,10.90
2008,07,15,08,18,10.90
2008,07,15,08,19,11.10
2008,07,15,08,20,11.00
2008,07,15,08,21,10.90
2008,07,15,08,22,10.90
2008,07,15,08,23,10.90
2008,07,15,08,24,10.90
2008,07,15,08,25,10.90
2008,07,15,08,26,10.90
2008,07,15,08,27,10.90
2008,07,15,08,28,10.90
2008,07,15,08,29,10.90
2008,07,15,08,30,10.90
2008,07,15,08,31,11.00
2008,07,15,08,32,11.10
2008,07,15,08,33,11.10
2008,07,15,08,34,11.10
2008,07,15,08,35,11.10
2008,07,15,08,36,11.10
2008,07,15,08,37,11.10
2008,07,15,08,38,11.10
2008,07,15,08,39,11.10
2008,07,15,08,40,11.20
2008,07,15,08,41,11.20
2008,07,15,08,42,11.30
2008,07,15,08,43,11.30
2008,07,15,08,44,11.30
2008,07,15,08,45,11.30
2008,07,15,08,46,11.30
2008,07,15,08,47,11.40
2008,07,15,08,48,11.40
2008,07,15,08,49,11.40
2008,07,15,08,50,11.40
2008,07,15,08,51,11.50
2008,07,15,08,52,11.60
2008,07,15,08,53,11.70
2008,07,15,08,54,11.80
2008,07,15,08,55,11.80
2008,07,15,08,56,11.80
2008,07,15,08,57,11.80
2008,07,15,08,58,11.80
2008,07,15,08,59,11.80
2008,07,15,09,00,11.80
2008,07,15,09,01,11.80
2008,07,15,09,02,11.80
2008,07,15,09,03,11.90
2008,07,15,09,04,11.90
2008,07,15,09,05,11.90
2008,07,15,09,06,11.90
2008,07,15,09,07,11.90
2008,07,15,09,08,11.90
2008,07,15,09,09,11.90
2008,07,15,09,10,11.90
2008,07,15,09,11,11.90
2008,07,15,09,12,12.00
2008,07,15,09,13,12.00
2008,07,15,09,14,12.00
2008,07,15,09,15,12.00
2008,07,15,09,16,12.00
2008,07,15,09,17,12.10
2008,07,15,09,18,12.10
2008,07,15,09,19,12.20
2008,07,15,09,20,12.30
2008,07,15,09,21,12.30
2008,07,15,09,22,12.30
2008,07,15,09,23,12.30
2008,07,15,09,24,12.30
2008,07,15,09,25,12.30
2008,07,15,09,26,12.30
2008,07,15,09,27,12.20
2008,07,15,09,28,12.20
2008,07,15,09,29,12.20
2008,07,15,09,30,12.30
2008,07,15,09,31,12.40
2008,07,15,09,32,12.50
2008,07,15,09,33,12.50
2008,07,15,09,34,12.50
2008,07,15,09,35,12.60
2008,07,15,09,36,12.50
2008,07,15,09,37,12.50
2008,07,15,09,38,12.50
2008,07,15,09,39,12.50
2008,07,15,09,40,12.60
2008,07,15,09,41,12.70
2008,07,15,09,42,12.70
2008,07,15,09,43,12.70
2008,07,15,09,44,12.60
2008,07,15,09,45,12.60
2008,07,15,09,46,12.70
2008,07,15,09,47,12.80
2008,07,15,09,48,12.80
2008,07,15,09,49,12.80
2008,07,15,09,50,12.70
2008,07,15,09,51,12.80
2008,07,15,09,52,12.80
2008,07,15,09,53,12.80
2008,07,15,09,54,12.80
2008,07,15,09,55,12.80
2008,07,15,09,56,12.80
2008,07,15,09,57,12.90
2008,07,15,09,58,12.90
2008,07,15,09,59,13.00
2008,07,15,10,00,13.00
2008,07,15,10,01,12.90
2008,07,15,10,02,12.80
2008,07,15,10,03,12.80
2008,07,15,10,04,12.80
2008,07,15,10,05,12.70
2008,07,15,10,06,12.60
2008,07,15,10,07,12.60
2008,07,15,10,08,12.50
2008,07,15,10,09,12.50
2008,07,15,10,10,12.50
2008,07,15,10,11,12.50
2008,07,15,10,12,12.50
2008,07,15,10,13,12.50
2008,07,15,10,14,12.50
2008,07,15,10,15,12.50
2008,07,15,10,16,12.40
2008,07,15,10,17,12.40
2008,07,15,10,18,12.50
2008,07,15,10,19,12.50
2008,07,15,10,20,12.50
2008,07,15,10,21,12.50
2008,07,15,10,22,12.60
2008,07,15,10,23,12.60
2008,07,15,10,24,12.70
2008,07,15,10,25,12.80
2008,07,15,10,26,12.70
2008,07,15,10,27,12.70
2008,07,15,10,28,12.60
2008,07,15,10,29,12.60
2008,07,15,10,30,12.50
2008,07,15,10,31,12.40
2008,07,15,10,32,12.30
2008,07,15,10,33,12.30
2008,07,15,10,34,12.30
2008,07,15,10,35,12.30
2008,07,15,10,36,12.30
2008,07,15,10,37,12.50
2008,07,15,10,38,12.50
2008,07,15,10,39,12.60
2008,07,15,10,40,12.60
2008,07,15,10,41,12.70
2008,07,15,10,42,12.80
2008,07,15,10,43,12.80
2008,07,15,10,44,12.80
2008,07,15,10,45,12.90
2008,07,15,10,46,12.90
2008,07,15,10,47,12.90
2008,07,15,10,48,12.90
2008,07,15,10,49,13.00
2008,07,15,10,50,13.10
2008,07,15,10,51,13.20
2008,07,15,10,52,13.20
2008,07,15,10,53,13.20
2008,07,15,10,54,13.30
2008,07,15,10,55,13.30
2008,07,15,10,56,13.30
2008,07,15,10,57,13.30
2008,07,15,10,58,13.30
2008,07,15,10,59,13.30
2008,07,15,11,00,13.20
2008,07,15,11,01,13.20
2008,07,15,11,02,13.20
2008,07,15,11,03,13.20
2008,07,15,11,04,13.30
2008,07,15,11,05,13.30
2008,07,15,11,06,13.30
2008,07,15,11,07,13.30
2008,07,15,11,08,13.30
2008,07,15,11,09,13.30
2008,07,15,11,10,13.40
2008,07,15,11,11,13.50
2008,07,15,11,12,13.50
2008,07,15,11,13,13.60
2008,07,15,11,14,13.70
2008,07,15,11,15,13.60
2008,07,15,11,16,13.60
2008,07,15,11,17,13.60
2008,07,15,11,18,13.60
2008,07,15,11,19,13.60
2008,07,15,11,20,13.60
2008,07,15,11,21,13.70
2008,07,15,11,22,13.80
2008,07,15,11,23,13.80
2008,07,15,11,24,13.90
2008,07,15,11,25,13.90
2008,07,15,11,26,13.90
2008,07,15,11,27,14.00
2008,07,15,11,28,14.10
2008,07,15,11,29,14.00
2008,07,15,11,30,14.10
2008,07,15,11,31,14.10
2008,07,15,11,32,14.20
2008,07,15,11,33,14.20
2008,07,15,11,34,14.20
2008,07,15,11,35,14.30
2008,07,15,11,36,14.40
2008,07,15,11,37,14.50
2008,07,15,11,38,14.50
2008,07,15,11,39,14.60
2008,07,15,11,40,14.60
2008,07,15,11,41,14.70
2008,07,15,11,42,14.80
2008,07,15,11,43,14.80
2008,07,15,11,44,14.90
2008,07,15,11,45,15.00
2008,07,15,11,46,15.00
2008,07,15,11,47,15.10
2008,07,15,11,48,15.00
2008,07,15,11,49,15.00
2008,07,15,11,50,15.10
2008,07,15,11,51,15.00
2008,07,15,11,52,14.80
2008,07,15,11,53,14.80
2008,07,15,11,54,14.80
2008,07,15,11,55,14.80
2008,07,15,11,56,14.80
2008,07,15,11,57,14.80
2008,07,15,11,58,14.70
2008,07,15,11,59,14.60
2008,07,15,12,00,14.60
2008,07,15,12,01,14.60
2008,07,15,12,02,14.60
2008,07,15,12,03,14.60
2008,07,15,12,04,14.50
2008,07,15,12,05,14.50
2008,07,15,12,06,14.60
2008,07,15,12,07,14.70
2008,07,15,12,08,14.90
2008,07,15,12,09,15.10
2008,07,15,12,10,15.40
2008,07,15,12,11,15.40
2008,07,15,12,12,15.30
2008,07,15,12,13,15.30
2008,07,15,12,14,15.40
2008,07,15,12,15,15.40
2008,07,15,12,16,15.20
2008,07,15,12,17,15.10
2008,07,15,12,18,15.00
2008,07,15,12,19,15.00
2008,07,15,12,20,15.00
2008,07,15,12,21,15.00
2008,07,15,12,22,15.10
2008,07,15,12,23,15.30
2008,07,15,12,24,15.20
2008,07,15,12,25,15.20
2008,07,15,12,26,15.20
2008,07,15,12,27,15.20
2008,07,15,12,28,15.20
2008,07,15,12,29,15.20
2008,07,15,12,30,15.20
2008,07,15,12,31,15.20
2008,07,15,12,32,15.10
2008,07,15,12,33,15.00
2008,07,15,12,34,14.90
2008,07,15,12,35,14.90
2008,07,15,12,36,15.00
2008,07,15,12,37,15.10
2008,07,15,12,38,15.10
2008,07,15,12,39,15.20
2008,07,15,12,40,15.30
2008,07,15,12,41,15.30
2008,07,15,12,42,15.30
2008,07,15,12,43,15.30
2008,07,15,12,44,15.30
2008,07,15,12,45,15.30
2008,07,15,12,46,15.20
2008,07,15,12,47,15.30
2008,07,15,12,48,15.30
2008,07,15,12,49,15.50
2008,07,15,12,50,15.50
2008,07,15,12,51,15.50
2008,07,15,12,52,15.60
2008,07,15,12,53,15.70
2008,07,15,12,54,15.70
2008,07,15,12,55,15.70
2008,07,15,12,56,15.50
2008,07,15,12,57,15.50
2008,07,15,12,58,15.50
2008,07,15,12,59,15.50
2008,07,15,13,00,15.60
2008,07,15,13,01,15.60
2008,07,15,13,02,15.50
2008,07,15,13,03,15.50
2008,07,15,13,04,15.30
2008,07,15,13,05,15.10
2008,07,15,13,06,15.10
2008,07,15,13,07,15.00
2008,07,15,13,08,15.00
2008,07,15,13,09,14.90
2008,07,15,13,10,14.90
2008,07,15,13,11,14.80
2008,07,15,13,12,14.80
2008,07,15,13,13,14.80
2008,07,15,13,14,14.90
2008,07,15,13,15,15.00
2008,07,15,13,16,15.00
2008,07,15,13,17,15.10
2008,07,15,13,18,15.10
2008,07,15,13,19,15.20
2008,07,15,13,20,15.30
2008,07,15,13,21,15.30
2008,07,15,13,22,15.30
2008,07,15,13,23,15.40
2008,07,15,13,24,15.40
2008,07,15,13,25,15.30
2008,07,15,13,26,15.30
2008,07,15,13,27,15.30
2008,07,15,13,28,15.30
2008,07,15,13,29,15.30
2008,07,15,13,30,15.30
2008,07,15,13,31,15.20
2008,07,15,13,32,15.20
2008,07,15,13,33,15.30
2008,07,15,13,34,15.30
2008,07,15,13,35,15.30
2008,07,15,13,36,15.30
2008,07,15,13,37,15.20
2008,07,15,13,38,15.20
2008,07,15,13,39,15.30
2008,07,15,13,40,15.30
2008,07,15,13,41,15.20
2008,07,15,13,42,15.30
2008,07,15,13,43,15.30
2008,07,15,13,44,15.40
2008,07,15,13,45,15.60
2008,07,15,13,46,15.60
2008,07,15,13,47,15.70
2008,07,15,13,48,15.80
2008,07,15,13,49,15.80
2008,07,15,13,50,15.80
2008,07,15,13,51,15.90
2008,07,15,13,52,15.90
2008,07,15,13,53,15.90
2008,07,15,13,54,16.00
2008,07,15,13,55,16.10
2008,07,15,13,56,16.20
2008,07,15,13,57,16.40
2008,07,15,13,58,16.40
2008,07,15,13,59,16.40
2008,07,15,14,00,16.50
2008,07,15,14,01,16.60
2008,07,15,14,02,16.60
2008,07,15,14,03,16.60
2008,07,15,14,04,16.60
2008,07,15,14,05,16.60
2008,07,15,14,06,16.60
2008,07,15,14,07,16.70
2008,07,15,14,08,16.70
2008,07,15,14,09,16.70
2008,07,15,14,10,16.90
2008,07,15,14,11,17.10
2008,07,15,14,12,17.30
2008,07,15,14,13,17.70
2008,07,15,14,14,17.80
2008,07,15,14,15,18.10
2008,07,15,14,16,18.20
2008,07,15,14,17,18.40
2008,07,15,14,18,18.40
2008,07,15,14,19,18.50
2008,07,15,14,20,18.50
2008,07,15,14,21,18.70
2008,07,15,14,22,18.70
2008,07,15,14,23,18.80
2008,07,15,14,24,18.90
2008,07,15,14,25,19.10
2008,07,15,14,26,19.40
2008,07,15,14,27,19.80
2008,07,15,14,28,20.10
2008,07,15,14,29,20.40
2008,07,15,14,30,20.60
2008,07,15,14,31,20.60
2008,07,15,14,32,20.60
2008,07,15,14,33,20.60
2008,07,15,14,34,20.60
2008,07,15,14,35,20.60
2008,07,15,14,36,20.70
2008,07,15,14,37,20.80
2008,07,15,14,38,20.80
2008,07,15,14,39,20.80
2008,07,15,14,40,20.90
2008,07,15,14,41,21.00
2008,07,15,14,42,21.10
2008,07,15,14,43,21.20
2008,07,15,14,44,21.30
2008,07,15,14,45,21.30
2008,07,15,14,46,21.50
2008,07,15,14,47,21.60
2008,07,15,14,48,21.60
2008,07,15,14,49,21.60
2008,07,15,14,50,21.70
2008,07,15,14,51,21.80
2008,07,15,14,52,21.90
2008,07,15,14,53,21.90
2008,07,15,14,54,21.90
2008,07,15,14,55,21.90
2008,07,15,14,56,21.90
2008,07,15,14,57,22.00
2008,07,15,14,58,22.00
2008,07,15,14,59,22.00
2008,07,15,15,00,22.10
2008,07,15,15,01,22.10
2008,07,15,15,02,22.10
2008,07,15,15,03,22.20
2008,07,15,15,04,22.40
2008,07,15,15,05,22.40
2008,07,15,15,06,22.50
2008,07,15,15,07,22.60
2008,07,15,15,08,22.70
2008,07,15,15,09,22.80
2008,07,15,15,10,22.90
2008,07,15,15,11,23.00
2008,07,15,15,12,23.10
2008,07,15,15,13,23.20
2008,07,15,15,14,23.10
2008,07,15,15,15,23.00
2008,07,15,15,16,22.80
2008,07,15,15,17,22.80
2008,07,15,15,18,22.80
2008,07,15,15,19,22.80
2008,07,15,15,20,22.90
2008,07,15,15,21,22.90
2008,07,15,15,22,23.00
2008,07,15,15,23,23.10
2008,07,15,15,24,23.10
2008,07,15,15,25,23.20
2008,07,15,15,26,23.30
2008,07,15,15,27,23.30
2008,07,15,15,28,23.40
2008,07,15,15,29,23.40
2008,07,15,15,30,23.30
2008,07,15,15,31,23.30
2008,07,15,15,32,23.30
2008,07,15,15,33,23.30
2008,07,15,15,34,23.40
2008,07,15,15,35,23.30
2008,07,15,15,36,23.30
2008,07,15,15,37,23.30
2008,07,15,15,38,23.40
2008,07,15,15,39,23.40
2008,07,15,15,40,23.40
2008,07,15,15,41,23.50
2008,07,15,15,42,23.60
2008,07,15,15,43,23.60
2008,07,15,15,44,23.60
2008,07,15,15,45,23.60
2008,07,15,15,46,23.60
2008,07,15,15,47,23.60
2008,07,15,15,48,23.40
2008,07,15,15,49,23.30
2008,07,15,15,50,23.30
2008,07,15,15,51,23.20
2008,07,15,15,52,23.20
2008,07,15,15,53,23.10
2008,07,15,15,54,23.10
2008,07,15,15,55,23.10
2008,07,15,15,56,23.00
2008,07,15,15,57,22.90
2008,07,15,15,58,22.90
2008,07,15,15,59,22.90
2008,07,15,16,00,23.00
2008,07,15,16,01,23.10
2008,07,15,16,02,23.10
2008,07,15,16,03,23.00
2008,07,15,16,04,22.90
2008,07,15,16,05,22.90
2008,07,15,16,06,22.90
2008,07,15,16,07,23.00
2008,07,15,16,08,23.10
2008,07,15,16,09,23.10
2008,07,15,16,10,23.10
2008,07,15,16,11,23.20
2008,07,15,16,12,23.30
2008,07,15,16,13,23.30
2008,07,15,16,14,23.20
2008,07,15,16,15,23.20
2008,07,15,16,16,23.20
2008,07,15,16,17,23.30
2008,07,15,16,18,23.30
2008,07,15,16,19,23.30
2008,07,15,16,20,23.40
2008,07,15,16,21,23.40
2008,07,15,16,22,23.40
2008,07,15,16,23,23.30
2008,07,15,16,24,23.30
2008,07,15,16,25,23.30
2008,07,15,16,26,23.40
2008,07,15,16,27,23.50
2008,07,15,16,28,23.60
2008,07,15,16,29,23.70
2008,07,15,16,30,23.60
2008,07,15,16,31,23.70
2008,07,15,16,32,23.70
2008,07,15,16,33,23.70
2008,07,15,16,34,23.70
2008,07,15,16,35,23.70
2008,07,15,16,36,23.80
2008,07,15,16,37,23.80
2008,07,15,16,38,23.70
2008,07,15,16,39,23.70
2008,07,15,16,40,23.70
2008,07,15,16,41,23.70
2008,07,15,16,42,23.80
2008,07,15,16,43,23.90
2008,07,15,16,44,23.90
2008,07,15,16,45,24.10
2008,07,15,16,46,24.10
2008,07,15,16,47,24.00
2008,07,15,16,48,23.80
2008,07,15,16,49,23.80
2008,07,15,16,50,23.80
2008,07,15,16,51,23.80
2008,07,15,16,52,23.70
2008,07,15,16,53,23.70
2008,07,15,16,54,23.70
2008,07,15,16,55,23.70
2008,07,15,16,56,23.70
2008,07,15,16,57,23.60
2008,07,15,16,58,23.60
2008,07,15,16,59,23.70
2008,07,15,17,00,23.70
2008,07,15,17,01,23.70
2008,07,15,17,02,23.70
2008,07,15,17,03,23.70
2008,07,15,17,04,23.60
2008,07,15,17,05,23.60
2008,07,15,17,06,23.50
2008,07,15,17,07,23.40
2008,07,15,17,08,23.40
2008,07,15,17,09,23.60
2008,07,15,17,10,23.70
2008,07,15,17,11,23.70
2008,07,15,17,12,23.70
2008,07,15,17,13,23.70
2008,07,15,17,14,23.70
2008,07,15,17,15,23.70
2008,07,15,17,16,23.70
2008,07,15,17,17,23.70
2008,07,15,17,18,23.60
2008,07,15,17,19,23.50
2008,07,15,17,20,23.40
2008,07,15,17,21,23.40
2008,07,15,17,22,23.40
2008,07,15,17,23,23.40
2008,07,15,17,24,23.40
2008,07,15,17,25,23.40
2008,07,15,17,26,23.50
2008,07,15,17,27,23.60
2008,07,15,17,28,23.70
2008,07,15,17,29,23.70
2008,07,15,17,30,23.60
2008,07,15,17,31,23.60
2008,07,15,17,32,23.50
2008,07,15,17,33,23.40